Weather History for KNIP - November, 2013

Change the Weather History Date:

Thursday, November 7, 2013

  Actual Average Record
Temperature  
Mean Temperature 74 °F -  
Max Temperature 80 °F 73 °F 84 °F (1996)
Min Temperature 68 °F 57 °F 45 °F (2001)
Cooling Degree Days 9    
Growing Degree Days 24 (Base 50)    
Moisture  
Dew Point 65 °F    
Average Humidity 79    
Maximum Humidity 93    
Minimum Humidity 54    
Precipitation  
Precipitation 0.00 in - - ()
Sea Level Pressure  
Sea Level Pressure 30.03 in    
Wind  
Wind Speed 6 mph (NNW)    
Max Wind Speed 14 mph    
Max Gust Speed 21 mph    
Visibility 8 miles    
Events Rain    
Averages and records for this station are not official NWS values.
T = Trace of Precipitation, MM = Missing Value Source: NWS Daily Summary

Daily Weather History Graph

Daily Weather History Graph

Search for Another Location

Airport or City:

Trip Planner

Search our weather history database for the weather conditions in past years. The results will help you decide how hot, cold, wet, or windy it might be!

Date:

Astronomy

Nov. 07, 2013 Rise Set
Actual Time 6:45 AM EST 5:34 PM EST
Civil Twilight 6:20 AM EST 5:59 PM EST
Nautical Twilight 5:52 AM EST 6:28 PM EST
Astronomical Twilight 5:23 AM EST 6:56 PM EST
Moon 10:49 AM EST (11/7) 9:47 PM EST (11/7)
Length of Visible Light 11h 38m
Length of Day
10h 48m
Waxing Crescent, 22% of the Moon is Illuminated
Nov 7
Waxing Crescent
Nov 10
First Quarter
Nov 17
Full
Nov 25
Last Quarter
Dec 2
New

Hourly Weather History & Observations

Time (EST) Temp. Heat Index Dew Point Humidity Pressure Visibility Wind Dir Wind Speed Gust Speed Precip Events Conditions
12:53 AM 70.0 °F - 66.9 °F 90% 30.07 in 1.8 mi North 5.8 mph - N/A   Overcast
1:42 AM 70.0 °F - 66.9 °F 90% 30.07 in 2.5 mi North 6.9 mph - N/A   Overcast
1:53 AM 70.0 °F - 66.9 °F 90% 30.06 in 4.0 mi NNW 6.9 mph - N/A   Overcast
2:40 AM 69.1 °F - 66.9 °F 93% 30.06 in 5.0 mi NNW 4.6 mph - N/A   Overcast
2:53 AM 69.1 °F - 66.9 °F 93% 30.04 in 6.0 mi NNW 6.9 mph - N/A   Overcast
3:19 AM 70.0 °F - 66.9 °F 90% 30.05 in 7.0 mi North 5.8 mph - N/A   Overcast
3:53 AM 70.0 °F - 66.0 °F 87% 30.03 in 7.0 mi NNE 5.8 mph - N/A   Overcast
4:53 AM 69.1 °F - 66.0 °F 90% 30.02 in 7.0 mi NNW 8.1 mph - N/A   Overcast
5:39 AM 68.0 °F - 64.9 °F 90% 30.05 in 7.0 mi NW 8.1 mph - N/A   Overcast
5:53 AM 68.0 °F - 64.9 °F 90% 30.04 in 7.0 mi NW 5.8 mph - N/A   Overcast
6:53 AM 68.0 °F - 64.9 °F 90% 30.04 in 5.0 mi NNW 3.5 mph - N/A   Overcast
7:53 AM 68.0 °F - 64.0 °F 87% 30.05 in 5.0 mi NNW 4.6 mph - N/A   Overcast
8:53 AM 68.0 °F - 64.0 °F 87% 30.08 in 5.0 mi NW 3.5 mph - N/A   Overcast
9:53 AM 70.0 °F - 64.9 °F 84% 30.08 in 7.0 mi Calm Calm - N/A   Overcast
10:53 AM 70.0 °F - 64.0 °F 81% 30.06 in 7.0 mi NW 5.8 mph - 0.00 in Rain Light Rain
11:53 AM 73.0 °F - 64.9 °F 76% 30.05 in 10.0 mi North 6.9 mph - 0.00 in   Mostly Cloudy
12:53 PM 77.0 °F - 64.9 °F 66% 30.02 in 10.0 mi NNE 4.6 mph - N/A   Mostly Cloudy
1:53 PM 77.0 °F - 64.0 °F 64% 29.99 in 10.0 mi NNE 5.8 mph - N/A   Mostly Cloudy
2:53 PM 79.0 °F - 64.0 °F 60% 29.98 in 10.0 mi North 6.9 mph - N/A   Mostly Cloudy
3:53 PM 79.0 °F - 63.0 °F 58% 29.99 in 10.0 mi NNW 4.6 mph - N/A   Mostly Cloudy
4:53 PM 80.1 °F 81.2 °F 62.1 °F 54% 29.99 in 10.0 mi NNW 6.9 mph - N/A   Scattered Clouds
5:53 PM 77.0 °F - 63.0 °F 62% 29.99 in 10.0 mi WNW 4.6 mph - N/A   Scattered Clouds
6:53 PM 77.0 °F - 63.0 °F 62% 30.00 in 10.0 mi WNW 4.6 mph - N/A   Partly Cloudy
7:53 PM 75.0 °F - 63.0 °F 66% 30.01 in 10.0 mi NW 4.6 mph - N/A   Partly Cloudy
8:53 PM 73.0 °F - 64.0 °F 73% 30.03 in 10.0 mi NNW 9.2 mph - N/A   Scattered Clouds
9:53 PM 72.0 °F - 64.9 °F 78% 30.03 in 10.0 mi NNW 9.2 mph - N/A   Overcast
10:53 PM 72.0 °F - 64.0 °F 76% 30.03 in 10.0 mi NNW 11.5 mph - N/A   Overcast
11:53 PM 71.1 °F - 63.0 °F 75% 30.04 in 10.0 mi NNW 13.8 mph 20.7 mph N/A   Overcast